Satellite-Ground Cal/Val Site Overpasses Predictions

Prediction of Satellite NPP Overpassing Cal/Val Site: Antarctic Dome C

Ground Cal/Val Site Location: Latitude: -75.10, Longitude: 123.35; Satellite-Ground Site NADIR distance within 100 km.

Table of predicted overpasses for the next 14.0 days since TLE Epoch: 10/14/2016
Interval Starting Time Ending Time Minimum Distance Time Minimum Distance (km)
1 10/15/2016 14:43:00 10/15/2016 14:43:25 10/15/2016 14:43:12 52.95
2 10/16/2016 07:44:42 10/16/2016 07:45:01 10/16/2016 07:44:52 73.52
3 10/17/2016 07:25:48 10/17/2016 07:26:16 10/17/2016 07:26:02 34.30
4 10/19/2016 15:08:15 10/19/2016 15:08:24 10/19/2016 15:08:19 94.37
5 10/20/2016 14:49:16 10/20/2016 14:49:45 10/20/2016 14:49:30 16.90
6 10/22/2016 07:32:05 10/22/2016 07:32:35 10/22/2016 07:32:20 2.78
7 10/25/2016 14:55:33 10/25/2016 14:56:01 10/25/2016 14:55:47 19.92
8 10/26/2016 14:36:51 10/26/2016 14:37:05 10/26/2016 14:36:58 87.07
9 10/27/2016 07:38:24 10/27/2016 07:38:51 10/27/2016 07:38:38 39.15


<
